Regional Weather Roundup
Issued by NWS

Home | Current Version | Previous Version | Graphics & Text | Print | Product List | Glossary On
Versions: 1 2 3 4 5 6 7 8 9 10 11 12 13 14 15 16 17 18 19 20 21 22 23 24 25 26 27 28 29 30 31 32 33 34 35 36 37 38 39 40 41 42 43 44 45 46 47 48 49 50
000
ASUS43 KMPX 262301
RWRMN
WEATHER ROUNDUP FOR MINNESOTA
NATIONAL WEATHER SERVICE TWIN CITIES/CHANHASSEN MN
600 PM CDT WED APR 26 2017


NOTE: "FAIR" INDICATES FEW OR NO CLOUDS BELOW 12,000 FEET WITH NO
SIGNIFICANT WEATHER AND/OR OBSTRUCTIONS TO VISIBILITY. N/A MEANS
CURRENT SKY AND/OR WEATHER CONDITIONS ARE NOT AVAILABLE.

MNZ060>063-068>070-270000-
   Twin Cities Metro

CITY           SKY/WX    TMP DP  RH WIND       PRES   REMARKS
TWIN CITIES    CLOUDY    40  32  73 N10G18    29.55S
ST PAUL        CLOUDY    40  34  79 N13       29.56R
CRYSTAL        CLOUDY    39  30  70 N10       29.55R
BLAINE         CLOUDY    39  39 100 N9G18     29.55R
LAKEVILLE      CLOUDY    37  34  87 NW14      29.56R
EDEN PRAIRIE   CLOUDY    40  33  76 NW13      29.55R
SOUTH ST PAUL  CLOUDY    40  33  76 N9        29.55R
LAKE ELMO      CLOUDY    39  34  81 N6        29.55R
$$
MNZ001>005-007-008-013>017-022>024-027-028-270000-
   Northwest Minnesota

CITY           SKY/WX    TMP DP  RH WIND       PRES   REMARKS
BEMIDJI        LGT SNOW  27  24  87 NE13G18   29.66F WCI  16
HALLOCK        LGT SNOW  34  28  80 NE10      29.80S WCI  26
ROSEAU         LGT SNOW  32  25  74 NE17      29.78S WCI  21
WARROAD        LGT SNOW  30  25  80 NE20G28   29.78S WCI  18
THIEF RVR FALL LGT SNOW  29  26  89 NE16      29.74F FOG     WCI  17
CROOKSTON      LGT SNOW  30  28  93 N14G20    29.76S WCI  20
FOSSTON        LGT SNOW  27  25  93 N14       29.69F WCI  15
DETROIT LAKES  LGT SNOW  30  28  93 CALM      29.66S
MOORHEAD       LGT RAIN  28  27  93 N8        29.72S WCI  20
PARK RAPIDS    CLOUDY    30  23  75 NE9       29.62F WCI  22
MAHNOMEN       LGT SNOW  28  26  91 N7        29.67F WCI  21
$$
MNZ006-009>011-018-025>026-270000-
   North Central Minnesota

CITY           SKY/WX    TMP DP  RH WIND       PRES   REMARKS
BAUDETTE       FLURRIES  29  23  78 NE14      29.73F WCI  18
FLAG ISLAND    LGT SNOW  30  23  74 NE21G29   29.78F WCI  17
INTL FALLS     LGT SNOW  28  21  75 NE13G22   29.72R WCI  17
WASKISH        FLURRIES  28  25  86 NE8       29.70S WCI  20
BIG FORK       PTSUNNY   28  21  74 N8        29.66S WCI  20
LONGVILLE      LGT SNOW  28  27  93 N6        29.63S WCI  22
GRAND RAPIDS   CLOUDY    29  25  85 N9        29.64F WCI  20
CRANE LAKE     LGT SNOW  25  19  80 NE6       29.72R WCI  18
ORR            DRIZZLE   27  19  74 N3        29.65R
COOK           CLOUDY    27  21  80 NE7       29.65S WCI  19
WALKER         LGT SNOW  27  25  91 N7        29.64S WCI  19
$$
MNZ012-019>021-037-270000-
   Northeast Minnesota

CITY           SKY/WX    TMP DP  RH WIND       PRES   REMARKS
DULUTH         FOG       32  30  92 N9        29.55F VSB 1   WCI  24
ELY            CLOUDY    25  19  80 N7G20     29.63R HAZE    WCI  17
HIBBING        CLOUDY    28  24  85 N12       29.62R WCI  18
EVELETH        PTSUNNY   30  24  79 N5        29.63S WCI  25
DULUTH HARBOR  MIX PCPN  34  34 100 N14       29.59F WCI  24
TWO HARBORS    CLOUDY    36  30  80 N8        29.55F
SILVER BAY     CLOUDY    30  28  93 N7        29.57S WCI  23
GRAND MARAIS     N/A     29  23  78 N9G29     29.56S WCI  20
G MARAIS ARPRT CLOUDY    19  16  86 N5        29.54R WCI  13
$$
MNZ029>031-032-039>041-046>048-054>057-064-270000-
   West Central Minnesota

CITY           SKY/WX    TMP DP  RH WIND       PRES   REMARKS
FERGUS FALLS   CLOUDY    30  27  86 N12G18    29.67R WCI  21
WHEATON        CLOUDY    30  27  86 N16G22    29.71R WCI  19
MORRIS         CLOUDY    32  28  86 NW14G21   29.64S WCI  22
ALEXANDRIA     CLOUDY    31  26  82 N12       29.63S WCI  22
ELBOW LAKE     CLOUDY    31  29  92 W14       29.66R WCI  21
WADENA         CLOUDY    28  27  93 N6        29.63R WCI  22
GLENWOOD       CLOUDY    30  28  93 N9        29.62F WCI  22
APPLETON       CLOUDY    34  28  80 NW13G18   29.66R WCI  25
BENSON         CLOUDY    37  27  65 N9        29.65S
ORTONVILLE     CLOUDY    30  25  80 N18G24    29.68R WCI  18
MADISON        CLOUDY    34  30  86 NW18      29.67S WCI  23
WILLMAR        CLOUDY    36  32  87 N12       29.62F
$$
MNZ033>034-036-042>043-049>051-058-059-270000-
   Central Minnesota

CITY           SKY/WX    TMP DP  RH WIND       PRES   REMARKS
ST CLOUD       CLOUDY    34  30  85 N10       29.59R WCI  26
SAUK CENTRE    CLOUDY    31  28  88 N9        29.62S WCI  23
PAYNESVILLE    CLOUDY    32  32 100 N10       29.61F FOG     WCI  24
AITKIN         CLOUDY    34  27  75 N8        29.59F WCI  27
PINE RIVER     FLURRIES  28  27  93 N6        29.66S WCI  22
BRAINERD       CLOUDY    30  27  88 N12       29.61S WCI  20
STAPLES        LGT SNOW  28  27  93 N6        29.63R WCI  22
LONG PRAIRIE   CLOUDY    32  28  86 CALM      29.63R
LITTLE FALLS   CLOUDY    32  28  86 N6        29.62S FOG     WCI  26
BUFFALO        CLOUDY    36  31  83 NW12G17   29.59S
MAPLE LAKE     CLOUDY    37  32  85 N13       29.58F
HUTCHINSON     CLOUDY    36  33  89 NW15G22   29.59F
$$
MNZ037-044-045-052-053-270000-
   East Central Minnesota

CITY           SKY/WX    TMP DP  RH WIND       PRES   REMARKS
PRINCETON      CLOUDY    37  34  87 NW12      29.57S
MORA           CLOUDY    34  32  93 N9        29.58F WCI  26
CAMBRIDGE      CLOUDY    39  32  75 NW9G16    29.54R
RUSH CITY      CLOUDY    37  32  81 N9G16     29.56R
MOOSE LAKE     CLOUDY    34  32  93 N9        29.55F WCI  26
HINCKLEY       MIX PCPN  36  34  93 N9        29.56S
CLOQUET        CLOUDY    32  30  93 N10G16    29.56F WCI  24
MCGREGOR       CLOUDY    32  30  93 N7        29.59F WCI  26
$$
MNZ071>073-080-081-089-090-097-098-270000-
   Southwest Minnesota

CITY           SKY/WX    TMP DP  RH WIND       PRES   REMARKS
MONTEVIDEO     CLOUDY    32  30  93 N14       29.64S WCI  22
GRANITE FALLS  CLOUDY    34  32  91 NW18      29.65F WCI  23
CANBY          CLOUDY    32  28  86 W17       29.68S WCI  21
MARSHALL       CLOUDY    32  28  85 NW21G29   29.64S WCI  20
REDWOOD FALLS  CLOUDY    36  31  82 NW15G22   29.60F
OLIVIA         CLOUDY    36  32  87 N13       29.60F
PIPESTONE      CLOUDY    34  27  75 NW18G25     N/A  WCI  23
WINDOM         MOSUNNY   36  32  87 NW23      29.61R
WORTHINGTON    CLOUDY    34  30  85 NW20      29.63R WCI  23
JACKSON        CLOUDY    34  32  93 NW17G24   29.61R WCI  23
TRACY          CLOUDY    33  31  91 N18G24    29.63S WCI  22
SLAYTON        CLOUDY    32  29  90 NW20      29.62F WCI  20
$$
MNZ065>067-074>077-082>085-091>093-270000-
   South Central Minnesota

CITY           SKY/WX    TMP DP  RH WIND       PRES   REMARKS
MANKATO        CLOUDY    38  32  79 NW14      29.59R
NEW ULM        CLOUDY    37  34  87 N13       29.59R
ST JAMES       CLOUDY    37  34  87 NW20      29.61R
FAIRMONT       CLOUDY    38  34  85 NW16      29.60R
GLENCOE        CLOUDY    37  35  90 NW10      29.58S
FARIBAULT      CLOUDY    39  36  87 NW7       29.57R
OWATONNA       CLOUDY    39  34  81 W13       29.57R
WASECA         CLOUDY    39  34  81 NW15      29.59R
ALBERT LEA     CLOUDY    39  34  81 NW8G16    29.56R
$$
MNZ078>079-086>088-094>096-270000-
   Southeast Minnesota

CITY           SKY/WX    TMP DP  RH WIND       PRES   REMARKS
ROCHESTER      CLOUDY    39  36  89 NW14      29.53S
RED WING       CLOUDY    41  36  81 NW6       29.54R
STANTON        CLOUDY    41  35  78 N8        29.55R
DODGE CENTER   CLOUDY    39  36  87 NW13      29.54R
WINONA         CLOUDY    41  37  87 NW9       29.52S
AUSTIN         CLOUDY    39  36  87 NW13      29.54S
PRESTON        CLOUDY    39  36  87 NW12      29.53S
$$
ABBREVIATIONS USED IN REMARKS
   TC - TEMPERATURES IN CELSIUS
  WCI - WIND CHILL INDEX
   HX - HEAT INDEX
  VSB - VISIBILITY
$$




USA.gov is the U.S. government's official web portal to all federal, state and local government web resources and services.